Regional Weather Roundup
Issued by NWS

Home | Current Version | Previous Version | Text Only | Print | Product List | Glossary Off
Versions: 1 2 3 4 5 6 7 8 9 10 11 12 13 14 15 16 17 18 19 20 21 22 23 24 25 26 27 28 29 30 31 32 33 34 35 36 37 38 39 40 41 42 43 44 45 46 47 48 49 50

000
ASUS43 KDTX 200510
RWRMI
MICHIGAN HOURLY REGIONAL WEATHER ROUNDUP
NATIONAL WEATHER SERVICE DETROIT/PONTIAC MI
100 AM EDT WED SEP 20 2017

NOTE: "FAIR" INDICATES FEW OR NO CLOUDS BELOW 12,000 FEET WITH NO
SIGNIFICANT WEATHER AND/OR OBSTRUCTION TO VISIBILITY.

MIZ047>049-052>055-059>063-066>070-074>076-081>083-200600-
SOUTHEAST LOWER MICHIGAN

CITY           SKY/WX    TMP DP  RH WIND       PRES   REMARKS
ADRIAN         CLOUDY    67  66  97 CALM      29.97S FOG
ALMA           CLOUDY    65  64  94 N5        29.98S FOG
ANN ARBOR      CLOUDY    68  67  96 CALM      29.97R FOG
BAD AXE        CLOUDY    66  65  95 CALM      29.99S FOG
CARO           CLOUDY    66  64  94 E3        29.97S FOG
DETROIT CITY   MOCLDY    68  68 100 CALM      29.97S FOG
DETROIT        CLOUDY    68  67  96 E5        29.97S FOG
FLINT          CLOUDY    67  66  97 E3        29.97F FOG
GROSSE ILE     CLOUDY    68  67  96 E3        29.96S FOG
HILLSDALE      CLOUDY    66  64  94 E5        29.96F FOG
HOWELL         CLOUDY    67  66  97 CALM      29.98S FOG

CITY           SKY/WX    TMP DP  RH WIND       PRES   REMARKS
JACKSON        CLOUDY    69  65  86 E8        29.96F FOG
LAMBERTVILLE   FOG       68  65  92 CALM      29.95S VSB 1/4
LANSING        CLOUDY    66  64  93 E3        29.97S FOG
LAPEER         CLOUDY    67  66  97 CALM      29.99S FOG
MASON          CLOUDY    68  66  92 SE5       29.96F FOG
MONROE         CLOUDY    69  67  93 CALM      29.95S FOG
MT. CLEMENS    CLOUDY    67  67 100 CALM      29.96S
PONTIAC        CLOUDY    68  68 100 E3        29.97S FOG
PORT HOPE        N/A     67  66  97 E5        29.97S
PORT HURON     FOG       66  64  94 CALM      29.98S VSB 1/4
TRI CITIES     CLOUDY    67  67 100 NE3       29.98F FOG
MIDLAND        CLOUDY    65  65  97 CALM      29.98S FOG
TROY           CLOUDY    68  67  97 CALM      29.99S FOG
SAGINAW HB     CLOUDY    64  64 100 CALM      29.98R FOG
$$
MIZ043>046-050>051-056>058-064>065-071>073-077>080-200600-
SOUTHWEST LOWER MICHIGAN

CITY           SKY/WX    TMP DP  RH WIND       PRES   REMARKS
BATTLE CREEK   CLOUDY    67  66  97 E3        29.96S FOG
BENTON HARBOR  PTCLDY    66  63  90 CALM      29.94S
BIG RAPIDS     CLOUDY    62  60  92 CALM      29.97F
COLDWATER      CLOUDY    67  67 100 CALM      29.96S FOG
FREMONT        CLOUDY    63  63 100 E6        29.96S FOG
HOLLAND        MOCLDY    64  60  87 E3        29.95F
GRAND RAPIDS   CLOUDY    67  64  90 E6        29.95F
IONIA          CLOUDY    65  65  98 NE5       29.96S FOG
KALAMAZOO      CLOUDY    68  64  87 E3        29.96S FOG
LUDINGTON      CLEAR     55  54  98 E5        29.95S
MARSHALL       CLOUDY    66  65  99 CALM      29.95F
MOUNT PLEASANT CLOUDY    66  65  98 CALM      29.98S FOG
MUSKEGON       CLEAR     62  60  93 E3        29.95F
SOUTH HAVEN    MOCLDY    67  64  90 CALM      29.94S
$$
MIZ016>042-200600-
NORTHERN LOWER MICHIGAN

CITY           SKY/WX    TMP DP  RH WIND       PRES   REMARKS
ALPENA         CLOUDY    66  66 100 SE3       30.01F
BEAVER ISLAND  CLEAR     61  59  92 E6        29.98F
BELLAIRE       CLEAR     56  55  95 CALM      29.98F
CADILLAC       CLOUDY    65  61  86 SE5       29.98F
CHARLEVOIX     CLEAR     61  57  88 SE8       30.01F
FRANKFORT      CLEAR     58  57  96 CALM      29.95F
GAYLORD        CLOUDY    59  58  96 CALM      30.01F FOG
GRAYLING       CLOUDY    61  58  90 E5        30.01F
HARBOR SPRINGS CLOUDY    60  58  95 E6        30.00F
HOUGHTON LAKE  CLOUDY    63  61  93 E6        30.00F
MANISTEE       CLEAR     54  53  97 E5        29.95F
OSCODA         CLOUDY    66  65  97 NW5       29.99S FOG
PELLSTON       CLOUDY    61  60  97 S3        30.01F
ROGERS CITY    CLOUDY    63  62  95 CALM      30.02F FOG
TRAVERSE CITY  CLEAR     63  58  83 CALM      29.96S
$$
MIZ007>008-015-200600-
EASTERN UPPER MICHIGAN

CITY           SKY/WX    TMP DP  RH WIND       PRES   REMARKS
KINROSS        CLOUDY    60  60 100 SE8       30.02F
MACKINAC ISLAN CLOUDY    63  62  97 SE5       30.00F
NEWBERRY       MOCLDY    57  56  97 SE13      29.99S
S. S. MARIE    MOCLDY    58  55  90 E3        30.01F
MUNISING         N/A     58  56  93 S8        29.94F
$$
MIZ004>006-011>014-085-200600-
CENTRAL UPPER MICHIGAN

CITY           SKY/WX    TMP DP  RH WIND       PRES   REMARKS
MANISTIQUE     CLEAR     61  55  81 E8        29.96S
MENOMINEE      CLEAR     60  58  92 CALM      29.93F
SAWYER-GWINN   CLEAR     55  53  92 S8        29.95F
$$
MIZ001>003-009>011-084-200600-
WESTERN UPPER MICHIGAN

CITY           SKY/WX    TMP DP  RH WIND       PRES   REMARKS
IRON MOUNTAIN  CLEAR     54  51  90 S3        29.92F FOG
HOUGHTON       CLEAR     58  53  84 SE9       29.89F
COPPER HARBOR    N/A     62  55  77 S10G17    29.90S
IRONWOOD       CLOUDY    63  56  78 SE12G21   29.84R
$$

ABBREVIATIONS USED IN REMARKS
   TC - TEMPERATURE IN CELSIUS
  WCI - WIND CHILL INDEX
   HX - HEAT INDEX
  VSB - VISIBILITY





USA.gov is the U.S. government's official web portal to all federal, state and local government web resources and services.